Location: Chandrammap?lem
(16.9200°N, 81.0051°E)
Time: 02:08:09
(UTC+00:00)

USA 186 - Pass Details

Date: 29 May 2024
Orbit: 378 x 437 km, 97.1° (Epoch: 15 June)

Event Time Altitude Azimuth Distance (km) Brightness Sun altitude
Exits shadow 14:56:44 35° 278° (W) 687 3.3 -24.3°
Drops below altitude 10° 14:59:21 10° 330° (NNW) 1,491 5.4 -24.8°
Sets 15:01:28 0° 339° (NNW) 2,367 6.4 -25.3°
